This is the latest recevied weather packets stored in our database for station/object M0JUI-1. If no packets are shown the sender has not sent any weather packets the latest 10 day(s).
| Time | Temp. | Humidity | Pressure | Rain* | Wind** | Luminosity | Snow |
|---|---|---|---|---|---|---|---|
| 1777931859 | 9.44° C | 20% | 1016.4 hPa | 0 mm | - | 0 W/m² | - |
| 1777931559 | 9.44° C | 20% | 1016.4 hPa | 0 mm | - | 0 W/m² | - |
| 1777931259 | 9.44° C | 21% | 1016.5 hPa | 0 mm | - | 0 W/m² | - |
| 1777930947 | 10° C | 22% | 1016.6 hPa | 0 mm | - | 0 W/m² | - |
| 1777930647 | 10° C | 22% | 1016.6 hPa | 0 mm | - | 0 W/m² | - |
| 1777930347 | 10° C | 21% | 1016.5 hPa | 0 mm | - | 0 W/m² | - |
| 1777930047 | 10.56° C | 21% | 1016.7 hPa | 0 mm | - | 0 W/m² | - |
| 1777929747 | 10.56° C | 21% | 1016.6 hPa | 0 mm | - | 0 W/m² | - |
| 1777929447 | 10.56° C | 21% | 1016.7 hPa | 0 mm | - | 0 W/m² | - |
| 1777929147 | 10.56° C | 21% | 1016.5 hPa | 0 mm | - | 0 W/m² | - |
| 1777928835 | 10.56° C | 19% | 1016.5 hPa | 0 mm | - | 0 W/m² | - |
| 1777928535 | 10.56° C | 16% | 1016.5 hPa | 0 mm | - | 0 W/m² | - |
| 1777928235 | 10.56° C | 12% | 1016.7 hPa | 0 mm | - | 0 W/m² | - |
| 1777927923 | 10.56° C | 9% | 1016.5 hPa | 0 mm | - | 0 W/m² | - |
| 1777927623 | 10.56° C | 5% | 1016.4 hPa | 0 mm | - | 0 W/m² | - |
| 1777927324 | 10.56° C | 3% | 1016.5 hPa | 0 mm | - | 0 W/m² | - |
| 1777927011 | 10° C | 2% | 1016.3 hPa | 0 mm | - | 0 W/m² | - |
| 1777926712 | 10° C | 2% | 1016.5 hPa | 0 mm | - | 0 W/m² | - |
| 1777926411 | 10° C | 3% | 1016.3 hPa | 0 mm | - | 0 W/m² | - |
| 1777926099 | 10° C | 4% | 1016.4 hPa | 0 mm | - | 0 W/m² | - |
| 1777925799 | 10° C | 5% | 1016.1 hPa | 0 mm | - | 0 W/m² | - |
| 1777925499 | 10° C | 6% | 1016.4 hPa | 0 mm | - | 0 W/m² | - |
| 1777925199 | 10° C | 8% | 1016.1 hPa | 0 mm | - | 0 W/m² | - |
| 1777924899 | 10° C | 10% | 1016.2 hPa | 0 mm | - | 0 W/m² | - |
| 1777924599 | 10.56° C | 12% | 1016.1 hPa | 0 mm | - | 0 W/m² | - |
* Rain latest hour (hover to see other rain measurements)
** Current wind speed in m/s (hover to see current wind gust speed)